Flag for China Weather past 2 weeks in Foochow, Fujian, China

Now
82 °F

Passing clouds.


Feels Like: 89 °F
Forecast: 71 / 92 °F
Wind: 6 mph from Northeast

Location: Fuzhou Airport

Current Time: Jul 28, 2014 at 9:01:00 PM

Latest Report: Jul 28, 2014 at 8:00 PM


Visibility: N/A

Pressure: 29.71 "Hg

Humidity: 79%

Dew point: 75 °F

Location of FoochowLocation

Historic Weather in Foochow — Graph

°F

Foochow temperature yesterday

Maximum temperature yesterday: 91 °F (at 11:00 AM)
Minimum temperature yesterday: 79 °F (at 4:00 AM)
Average temperature yesterday: 85 °F

Past Weeks' High & Low Weather Summary

 TemperatureHumidityPressure
High91 °F (Jul 14, 1:00 PM)100% (Jul 24, 1:00 AM)29.86 "Hg (Jul 24, 1:00 AM)
Low77 °F (Jul 24, 1:00 AM)56% (Jul 21, 1:00 PM)29.18 "Hg (Jul 23, 4:00 PM)
Average84 °F79%29.73 "Hg
* Reported Jul 13 7:00 PM — Jul 28 7:00 PM, Foochow, Weather by CustomWeather, © 2014

Note: Actual official high and low records may vary slightly from our data, if they occured in-between our weather recording intervals... More about our weather records

Advertising

Foochow weather history for previous 24 hours

 ConditionsComfort  
Time TempWeatherWind HumidityBarometerVisibility
7:00 PM
Jul 28
82 °FPassing clouds.8 mph79%29.68 "HgN/A
6:00 PM84 °FPassing clouds.10 mph74%29.68 "HgN/A
5:00 PM86 °FScattered clouds.8 mph75%29.68 "HgN/A
4:00 PM88 °FScattered clouds.8 mph70%29.65 "HgN/A
3:00 PM90 °FScattered clouds.10 mph67%29.68 "HgN/A
2:00 PM90 °FPassing clouds.13 mph63%29.71 "HgN/A
1:00 PM90 °FPassing clouds.10 mph67%29.71 "HgN/A
12:00 PM90 °FPassing clouds.13 mph63%29.74 "HgN/A
11:00 AM90 °FPassing clouds.10 mph63%29.77 "HgN/A
10:00 AM90 °FScattered clouds.8 mph63%29.77 "HgN/A
9:00 AM88 °FPassing clouds.8 mph66%29.77 "HgN/A
8:00 AM84 °FPassing clouds.6 mph74%29.77 "HgN/A
7:00 AM82 °FPassing clouds.3 mph84%29.77 "HgN/A
6:00 AM79 °FPassing clouds.3 mph89%29.74 "HgN/A
5:00 AM79 °FClear.3 mph89%29.74 "Hg10 mi
4:00 AM79 °FClear.3 mph89%29.74 "Hg10 mi
3:00 AM81 °FClear.3 mph89%29.74 "Hg10 mi
2:00 AM81 °FPassing clouds.1 mph89%29.74 "HgN/A
1:00 AM81 °FPassing clouds.3 mph89%29.77 "HgN/A
12:00 AM81 °FPassing clouds.3 mph89%29.77 "HgN/A
11:00 PM
Jul 27
81 °FPassing clouds.3 mph89%29.80 "HgN/A
10:00 PM82 °FPassing clouds.3 mph84%29.80 "HgN/A
9:00 PM82 °FPassing clouds.6 mph84%29.77 "HgN/A
Weather by CustomWeather, © 2014

See weather overviewHow to use our weather pages